{"data":{"norad_id":52544,"epoch":"2026-05-25T03:39:36.773280Z","epoch_age_seconds":55145,"freshness":"FRESH","line1":"1 52544U 22051M   26145.15250895 -.00000058  00000+0  14451-4 0  9995","line2":"2 52544  53.2142 150.8739 0001227  87.5851 272.5281 15.08838342222913","mean_motion":15.08838342,"eccentricity":0.0001227,"inclination_deg":53.2142,"raan_deg":150.8739,"arg_perigee_deg":87.5851,"mean_anomaly_deg":272.5281,"bstar":1.4451e-5,"rev_number":22291,"period_min":95.437659550144,"perigee_km":538.8996322659,"apogee_km":540.597281357,"semimajor_km":6917.8854568115,"source":"CELESTRAK","updated_at":"2026-05-25T13:38:17.163333Z"}}